Regional Weather Roundup
Issued by NWS Charleston, SC

Current Version | Previous Version | Graphics & Text | Print | Product List | Glossary On
Versions: 1 2 3 4 5 6 7 8 9 10 11 12 13 14 15 16 17 18 19 20 21 22 23 24 25 26 27 28 29 30 31 32 33 34 35 36 37 38 39 40 41 42 43 44 45 46 47 48 49 50
000 ASUS42 KCHS 241725 RWRCHS REGIONAL WEATHER ROUNDUP NATIONAL WEATHER SERVICE CHARLESTON SC 100 PM EDT FRI OCT 24 2014 NOTE: "FAIR" INDICATES FEW OR NO CLOUDS BELOW 12,000 FEET WITH NO SIGNIFICANT WEATHER AND/OR OBSTRUCTIONS TO VISIBILITY. NOT ALL STATIONS ARE QUALITY CONTROLLED BY THE NATIONAL WEATHER SERVICE. USE DATA WITH CAUTION...ESPECIALLY DEWPOINT OBSERVATIONS. SCZ027-030-031-034>040-042>050-241800- ...SOUTH CAROLINA... CITY SKY/WX TMP DP RH WIND PRES REMARKS N CHARLESTON PTSUNNY 71 47 42 CALM 30.04F WATERFRONT PRK N/A 68 N/A N/A NE5 N/A FORT JOHNSON NOT AVBL JOHNS ISLAND SUNNY 72 48 43 CALM 30.04F PINOPOLIS NOT AVBL MONCKS CORNER FAIR 66 54 63 NW3 30.05F SUMMERVILLE FAIR 68 52 56 NW3 30.05F BEAUFORT MCAS MOSUNNY 70 47 43 S3 30.05F BEAUFORT ARPT FAIR 68 52 56 CALM 30.04F HILTON HEAD IS MOSUNNY 70 52 52 CALM 30.06F GEORGETOWN NOT AVBL WALTERBORO SUNNY 72 43 35 N3 30.04F ORANGEBURG SUNNY 68 46 45 CALM 30.05F BARNWELL FAIR 70 46 43 CALM 30.06F AIKEN FAIR 70 48 46 NE3 30.07F MANNING FAIR 68 46 45 N5 30.04F KINGSTREE NOT AVBL COLUMBIA MOSUNNY 67 43 41 S3 30.05F SUMTER SUNNY 67 45 44 VRB3 30.03F FLORENCE MOSUNNY 67 45 45 N5 30.05F MYRTLE BEACH PTSUNNY 66 46 48 N8 30.05F N MYRTLE BEACH MOSUNNY 67 48 50 N3 30.03F $$ GAZ063-065-086>088-099>101-113>116-118-119-134-136>141-150-241800- ...GEORGIA... CITY SKY/WX TMP DP RH WIND PRES REMARKS SAVANNAH ARPT MOSUNNY 75 43 31 NE5 30.06F HUNTER AAF MOSUNNY 71 46 40 E6 30.03F FORT STEWART MOSUNNY 70 42 35 NE5 30.04F STATESBORO NOT AVBL SYLVANIA SUNNY 76 52 42 CALM 30.05F CLAXTON FAIR 72 46 40 NE3 30.04F THOMSON SUNNY 71 54 56 CALM 30.09F AUGUSTA-BUSH SUNNY 70 45 40 CALM 30.06F AUGUSTA-DANIEL SUNNY 70 45 40 NW3 30.06F SWAINSBORO FAIR 73 45 35 MISG 30.05F VIDALIA SUNNY 72 46 40 E3 30.04F ALMA SUNNY 72 44 36 VRB5 30.04F WAYCROSS SUNNY 74 47 37 E3 30.03F JESUP FAIR 73 46 38 SE6 30.04F BRUNSWICK MOSUNNY 72 45 37 CALM 30.05F SAINT SIMONS MOSUNNY 70 48 45 E8 30.05F $$ SCZ027-028-034-036>038-045-046-048>050-GAZ119-141-241800- ...LAKE AND SUPPLEMENTAL COASTAL OBSERVATIONS... STATION/POSITION TIME TEMP WIND PRES WAVE SWELL AIR SEA DIR/SP/G HT/PER HT/PER/DIR (UTC) (F) (DEG/KT/KT) (MB) (FT/S) (FT/S/D) UPR LAKE MARION NOT AVBL WINYAH BAY 1700 62 100/ 4 1017.0F LAKE MURRAY 1700 64 170/ 4/ 5 1017.6S ACE BASIN NERRS 1700 70 250/ 1 1018.0S FORT PULASKI 1700 67 90/ 4/ 5 1017.8F SAPELO ISLAND NOT AVBL $$ ANZ835-935-AMZ111-154-330-350-352-354-374-450-454-472-241800- ...C-MAN AND BUOY OBSERVATIONS... STATION/POSITION TIME TEMP WIND PRES WAVE SWELL AIR SEA DIR/SP/G HT/PER HT/PER/DIR (UTC) (F) (DEG/KT/KT) (MB) (FT/S) (FT/S/D) FOLLY BEACH CMAN 1700 67 50/ 3/ 3 1017.7F BUOY 41004 1700 69 78 10/ 6/ 10 1016.6F 3/11 3/11 BUOY 41008 1700 68 75 10/ 10/ 14 1017.7F 2/10 2/ 90/10 5E ST. MARYS GA 1700 76 N/A 3/12 2/ 80/12 FRYING PAN BUOY 1700 65 73 30/ 6/ 10 1017.3F 3/10 2/120/10 BUOY 41025 1700 62 320/ 14/ 17 1015.1F 4/ 9 2/ 40/ 9 CAPE LOOKOUT NC 1700 64 330/ 6/ 8 1016.1F BUOY 41002 1641 73 78 330/ 10/ 12 1015.5F 5/10 5/ 10/10 BUOY 41010 1700 74 81 60/ 10/ 16 1015.3F 3/12 3/ 30/12 BUOY 41012 NOT AVBL ST AUGUSTINE FL 1700 69 360/ 15/ 16 1017.4F CAPERS NEARSHORE NOT AVBL FRIPP NEARSHORE NOT AVBL $$

USA.gov is the U.S. government's official web portal to all federal, state and local government web resources and services.